TimeEDT,TemperatureF,Dew PointF,Humidity,Sea Level PressureIn,VisibilityMPH,Wind Direction,Wind SpeedMPH,Gust SpeedMPH,PrecipitationIn,Events,Conditions,WindDirDegrees,DateUTC
12:14 AM,37.4,24.8,60,30.03,10.0,SW,3.5,-,N/A,,Overcast,230,2012-10-11 04:14:00
12:35 AM,37.4,26.6,65,30.03,10.0,Calm,Calm,-,N/A,,Overcast,0,2012-10-11 04:35:00
12:54 AM,37.4,28.4,70,30.02,10.0,Calm,Calm,-,N/A,,Overcast,0,2012-10-11 04:54:00
1:15 AM,39.2,28.4,65,30.02,10.0,SW,3.5,-,N/A,,Overcast,230,2012-10-11 05:15:00
1:35 AM,39.2,28.4,65,30.01,10.0,SW,3.5,-,N/A,,Overcast,220,2012-10-11 05:35:00
1:54 AM,41.0,28.4,61,30.00,10.0,SW,3.5,-,N/A,,Overcast,230,2012-10-11 05:54:00
2:15 AM,42.8,28.4,57,29.99,10.0,SW,4.6,-,N/A,,Overcast,220,2012-10-11 06:15:00
2:35 AM,42.8,30.2,61,29.98,10.0,SSW,6.9,-,N/A,,Overcast,210,2012-10-11 06:35:00
2:55 AM,42.8,30.2,61,29.98,10.0,SW,4.6,-,N/A,,Overcast,230,2012-10-11 06:55:00
3:15 AM,44.6,30.2,57,29.98,10.0,SW,6.9,-,N/A,,Overcast,220,2012-10-11 07:15:00
3:55 AM,44.6,30.2,57,29.98,10.0,West,9.2,-,N/A,,Overcast,260,2012-10-11 07:55:00
4:15 AM,42.8,28.4,57,29.97,10.0,West,8.1,-,N/A,,Overcast,260,2012-10-11 08:15:00
4:34 AM,42.8,28.4,57,29.98,10.0,WSW,8.1,-,N/A,,Overcast,250,2012-10-11 08:34:00
4:55 AM,41.0,30.2,65,29.97,10.0,WSW,11.5,-,N/A,,Light Drizzle,250,2012-10-11 08:55:00
5:14 AM,39.2,32.0,75,29.97,10.0,West,5.8,-,N/A,Rain,Rain,270,2012-10-11 09:14:00
5:35 AM,37.4,33.8,87,29.96,10.0,West,8.1,-,N/A,Rain,Light Rain,260,2012-10-11 09:35:00
5:55 AM,37.4,33.8,87,29.96,10.0,WSW,5.8,-,N/A,Rain,Light Rain,250,2012-10-11 09:55:00
6:14 AM,37.4,33.8,87,29.95,7.0,WSW,3.5,-,N/A,Rain,Light Rain,250,2012-10-11 10:14:00
6:35 AM,37.4,33.8,87,29.93,5.0,WSW,3.5,-,N/A,Rain,Light Rain,250,2012-10-11 10:35:00
6:54 AM,37.4,33.8,87,29.92,5.0,Calm,Calm,-,N/A,Rain,Light Rain,0,2012-10-11 10:54:00
7:15 AM,37.4,33.8,87,29.91,4.0,Calm,Calm,-,N/A,Rain,Light Rain,0,2012-10-11 11:15:00
7:35 AM,37.4,33.8,87,29.89,2.5,Calm,Calm,-,N/A,,Overcast,0,2012-10-11 11:35:00
7:54 AM,41.0,37.4,87,29.89,7.0,SSW,12.7,21.9,N/A,Rain,Light Rain,210,2012-10-11 11:54:00
8:15 AM,42.8,37.4,81,29.87,10.0,SSW,12.7,21.9,N/A,Rain,Rain,210,2012-10-11 12:15:00
8:35 AM,42.8,37.4,81,29.86,10.0,SW,6.9,-,N/A,Rain,Light Rain,220,2012-10-11 12:35:00
8:54 AM,42.8,37.4,81,29.86,10.0,SW,13.8,25.3,N/A,Rain,Light Rain,220,2012-10-11 12:54:00
9:15 AM,42.8,37.4,81,29.85,10.0,SW,13.8,17.3,N/A,Rain,Rain,220,2012-10-11 13:15:00
9:34 AM,42.8,39.2,87,29.85,10.0,WSW,8.1,17.3,N/A,,Light Drizzle,240,2012-10-11 13:34:00
9:55 AM,42.8,39.2,87,29.84,10.0,WSW,4.6,-,N/A,,Overcast,250,2012-10-11 13:55:00
10:15 AM,42.8,39.2,87,29.83,10.0,West,5.8,-,N/A,,Mostly Cloudy,260,2012-10-11 14:15:00
10:35 AM,42.8,39.2,87,29.84,10.0,West,5.8,-,N/A,,Mostly Cloudy,260,2012-10-11 14:35:00
10:54 AM,44.6,37.4,76,29.84,10.0,West,11.5,-,N/A,,Overcast,270,2012-10-11 14:54:00
11:15 AM,42.8,37.4,81,29.85,10.0,West,13.8,21.9,N/A,,Overcast,280,2012-10-11 15:15:00
11:35 AM,42.8,37.4,81,29.86,10.0,WNW,19.6,24.2,N/A,,Scattered Clouds,290,2012-10-11 15:35:00
11:54 AM,42.8,37.4,81,29.87,10.0,WNW,12.7,21.9,N/A,,Scattered Clouds,300,2012-10-11 15:54:00
12:15 PM,42.8,37.4,81,29.88,10.0,WNW,13.8,23.0,N/A,,Scattered Clouds,300,2012-10-11 16:15:00
12:35 PM,42.8,37.4,81,29.88,10.0,WNW,16.1,23.0,N/A,,Scattered Clouds,300,2012-10-11 16:35:00
12:55 PM,44.6,37.4,76,29.89,10.0,WNW,12.7,25.3,N/A,,Scattered Clouds,300,2012-10-11 16:55:00
1:15 PM,44.6,35.6,71,29.89,10.0,NW,18.4,25.3,N/A,,Mostly Cloudy,310,2012-10-11 17:15:00
1:55 PM,44.6,35.6,71,29.90,10.0,WNW,12.7,18.4,N/A,,Scattered Clouds,290,2012-10-11 17:55:00
2:15 PM,44.6,33.8,66,29.91,10.0,WNW,18.4,27.6,N/A,,Scattered Clouds,300,2012-10-11 18:15:00
2:34 PM,44.6,35.6,71,29.92,10.0,NW,12.7,23.0,N/A,,Drizzle,310,2012-10-11 18:34:00
2:55 PM,44.6,33.8,66,29.93,10.0,WNW,13.8,26.5,N/A,,Mostly Cloudy,300,2012-10-11 18:55:00
3:15 PM,44.6,32.0,61,29.94,10.0,WNW,15.0,25.3,N/A,,Mostly Cloudy,300,2012-10-11 19:15:00
3:34 PM,44.6,33.8,66,29.95,10.0,WNW,13.8,21.9,N/A,,Scattered Clouds,290,2012-10-11 19:34:00
3:55 PM,46.4,33.8,62,29.96,10.0,West,12.7,23.0,N/A,,Clear,280,2012-10-11 19:55:00
4:14 PM,48.2,33.8,58,29.97,10.0,West,15.0,24.2,N/A,,Mostly Cloudy,280,2012-10-11 20:14:00
4:35 PM,48.2,28.4,46,29.97,10.0,NW,17.3,29.9,N/A,,Overcast,320,2012-10-11 20:35:00
4:55 PM,46.4,33.8,62,29.99,10.0,NNW,11.5,20.7,N/A,,Overcast,330,2012-10-11 20:55:00
5:14 PM,42.8,30.2,61,30.00,10.0,WNW,11.5,-,N/A,,Mostly Cloudy,300,2012-10-11 21:14:00
6:15 PM,44.6,24.8,46,30.03,10.0,WNW,16.1,21.9,N/A,,Scattered Clouds,300,2012-10-11 22:15:00
6:35 PM,42.8,26.6,53,30.03,10.0,WNW,11.5,19.6,N/A,,Clear,290,2012-10-11 22:35:00
6:54 PM,42.8,26.6,53,30.05,10.0,West,9.2,17.3,N/A,,Clear,280,2012-10-11 22:54:00
7:34 PM,39.2,26.6,61,30.07,10.0,WNW,8.1,16.1,N/A,,Scattered Clouds,290,2012-10-11 23:34:00
7:55 PM,37.4,32.0,81,30.11,3.0,NW,15.0,34.5,N/A,Snow,Light Snow,320,2012-10-11 23:55:00
8:14 PM,35.6,32.0,87,30.11,5.0,West,10.4,16.1,N/A,Snow,Light Snow,280,2012-10-12 00:14:00
8:35 PM,35.6,32.0,87,30.11,10.0,WNW,10.4,16.1,N/A,,Scattered Clouds,300,2012-10-12 00:35:00
8:55 PM,35.6,33.8,93,30.13,10.0,NW,9.2,-,N/A,Rain,Light Rain,320,2012-10-12 00:55:00
9:14 PM,35.6,33.8,93,30.14,7.0,WNW,11.5,18.4,N/A,Rain,Light Rain,290,2012-10-12 01:14:00
9:35 PM,35.6,32.0,87,30.15,10.0,WNW,15.0,20.7,N/A,Rain,Light Rain,290,2012-10-12 01:35:00
9:55 PM,35.6,32.0,87,30.16,10.0,WNW,13.8,-,N/A,Snow,Light Snow,290,2012-10-12 01:55:00
10:14 PM,33.8,30.2,87,30.16,10.0,West,10.4,-,N/A,Rain,Light Rain,280,2012-10-12 02:14:00
10:54 PM,33.8,30.2,87,30.18,10.0,WNW,8.1,-,N/A,,Mostly Cloudy,290,2012-10-12 02:54:00
11:15 PM,33.8,30.2,87,30.18,10.0,WNW,6.9,-,N/A,,Scattered Clouds,290,2012-10-12 03:15:00
11:35 PM,33.8,30.2,87,30.19,10.0,WNW,8.1,-,N/A,,Clear,290,2012-10-12 03:35:00
11:54 PM,33.8,30.2,87,30.20,10.0,NW,6.9,-,N/A,,Clear,320,2012-10-12 03:54:00